星链-2589 (STARLINK-2589 )

导读

STARLINK-2589是美国SpaceX公司星链(Starlink)星座中的一颗卫星,于2021年5月4日发射升空,属于星链星座组网卫星,主要为全球提供低延迟、高速率的宽带互联网服务,尤其覆盖偏远地区等网络基础设施薄弱区域,目前已在轨道运行,参与星链星座的全球服务组网。

基本信息
目录编号:
48371
目录名称:
STARLINK-2589
国际标识:
2021-038U
轨道中心:
EARTH
卫星名称:
星链-2589
卫星全名:
星链-2589 (STARLINK-2589 )
卫星状态:
在轨 (已飞行1956 天)
发射日期:
2021-05-04 UTC
国别 :
美国 (US)
星等 :
--
该卫星已列入 空间交会检测服务 Space Conjunction Data Service (SCDS) ,当前飞行风险评估等级: 无高风险
轨道信息
数据来源 国际轨道数据 AOE轨道数据
星历时间 2026-09-10T22:25:00+0800
19小时前
查看轨道信息
2026-09-05T22:00:00+0800
5天前
查看轨道信息
半长轴 6848.873km 6848.845km
偏心率 0.0001435 0.0001243
轨道倾角 53.159° 53.156°
近地点辐角 85.523° 80.504°
升交点赤经 207.371° 230.732°
平近点角 274.594° 317.753°
近地点 469.753km 469.856km
远地点 471.719km 471.56km
周期 94.013分钟 94.013分钟
每日圈数 15.317014 15.317108
详细信息
固有亮度:
5
最大亮度:
2.5
卫星平台:
Starlink V1.0
覆盖范围:
全球
运营商:
太空探索技术公司
运营商所在国:
美国
制造商(研发单位):
太空探索技术公司
制造商所在国:
美国
使用方式:
暂无
卫星简介
星链(Starlink)计划是由太空探索技术公司(SpaceX)提出的一个巨型低轨卫星互联网星座项目,计划在2019年至2024年间在太空搭建由约1.2万颗卫星组成的“星链”网络,其中1584颗将部署在地球上空550千米处的近地轨道,并从2020年开始工作。该卫星仍在工作。
2D轨道图
3D轨道图
轨道高度分析图
轨道倾角分析图
轨道综合分析图
查看轨道综合分析图
交会数据列表
事件ID 空间交会对象 最接近时刻(TCA) 交会距离 交会风险概率(CRP) 交会风险指数(CRI) 操作
CDM_260912-130104-837106-772921
2026-09-12T
13:01:47+0000
0.834 km
远距离
4.417819E-5 中风险 0.68
CDM_260913-133704-837105-700422
OBJECT A (57004)
2026-09-13T
13:37:01+0000
1.499 km
极远距离
6.707706E-6 低风险 0.52
CDM_260913-161304-837106-838021
2026-09-13T
16:13:26+0000
2.723 km
极远距离
1.501207E-6 低风险 0.39
CDM_260912-025104-837106-757721
2026-09-12T
02:51:46+0000
2.657 km
极远距离
1.451165E-6 低风险 0.38
CDM_260906-144504-837106-839121
2026-09-06T
14:45:51+0000
2.897 km
极远距离
1.389777E-6 低风险 0.38
CDM_260912-213504-837106-955621
2026-09-12T
21:35:05+0000
2.808 km
极远距离
1.22806E-6 低风险 0.37
CDM_260907-183204-837106-238023
OBJECT D (62380)
2026-09-07T
18:32:56+0000
1.999 km
极远距离
1.03063E-6 低风险 0.35
与全量物体交会距离演化趋势
与全量物体交会风险概率演化趋势